STARLINK-1735

Last updated on Fri Nov 06 2020 00:02:03 GMT+0000 (Coordinated Universal Time)

1 46565U 20070AK 20310.83334491 -.00039681 00000-0 -42906-3 0 9999 2 46565 53.0024 292.9179 0001115 76.2366 27.5517 15.62786953 5272

Satellite not in orbit